Weather History for Sioux City, IA

Change the Weather History Date:

Friday, June 21, 2013

  Actual Average Record
Temperature  
Mean Temperature 87 °F 72 °F  
Max Temperature 94 °F 84 °F 108 °F (1988)
Min Temperature 79 °F 60 °F 41 °F (1902)
Degree Days  
Heating Degree Days 0 0  
Month to date heating degree days 40 24  
Since 1 June heating degree days 40 24  
Since 1 July heating degree days 7092 6858  
Cooling Degree Days 22 7  
Month to date cooling degree days 102 112  
Year to date cooling degree days 158 176  
Since 1 June cooling degree days 102 112  
Growing Degree Days 36 (Base 50)    
Moisture  
Dew Point 70 °F    
Average Humidity 60    
Maximum Humidity 74    
Minimum Humidity 38    
Precipitation  
Precipitation 0.00 in 0.13 in 2.83 in (1903)
Month to date precipitation 1.69 2.76  
Year to date precipitation 15.02 12.74  
Snow  
Snow 0.00 in 0.00 in 0.00 in ()
Month to date snowfall 0.0 0.0  
Since 1 June snowfall 0.0 0.0  
Since 1 July snowfall 45.1 34.8  
Snow Depth 0.00 in    
Sea Level Pressure  
Sea Level Pressure 29.77 in    
Wind  
Wind Speed 15 mph (SSE)    
Max Wind Speed 28 mph    
Max Gust Speed 35 mph    
Visibility 10 miles    
Events      
T = Trace of Precipitation, MM = Missing Value Source: NWS Daily Summary

Daily Weather History Graph

Daily Weather History Graph

Search for Another Location

Airport:

Trip Planner

Search our weather history database for the weather conditions in past years. The results will help you decide how hot, cold, wet, or windy it might be!

Date:

Astronomy

Jun. 21, 2013 Rise Set
Actual Time 5:48 AM CDT 9:06 PM CDT
Civil Twilight 5:13 AM CDT 9:40 PM CDT
Nautical Twilight 4:28 AM CDT 10:25 PM CDT
Astronomical Twilight 3:33 AM CDT 11:21 PM CDT
Moon 7:16 PM CDT (6/21) 4:06 AM CDT (6/21)
Length of Visible Light 16h 27m
Length of Day
15h 17m
Waxing Gibbous, 95% of the Moon is Illuminated
Jun 21
Waxing Gibbous
Jun 23
Full
Jun 29
Last Quarter
Jul 8
New
Jul 15
First Quarter

Hourly Weather History & Observations

Time (CDT) Temp. Heat Index Dew Point Humidity Pressure Visibility Wind Dir Wind Speed Gust Speed Precip Events Conditions
12:52 AM 82.0 °F 86.3 °F 71.1 °F 69% 29.78 in 10.0 mi South 15.0 mph - N/A   Clear
1:52 AM 82.0 °F 86.3 °F 71.1 °F 69% 29.76 in 10.0 mi South 20.7 mph 26.5 mph N/A   Clear
2:52 AM 81.0 °F 84.9 °F 71.1 °F 72% 29.74 in 10.0 mi South 15.0 mph 24.2 mph N/A   Clear
3:52 AM 81.0 °F 84.9 °F 71.1 °F 72% 29.76 in 10.0 mi South 11.5 mph 21.9 mph N/A   Clear
4:52 AM 80.1 °F 83.2 °F 70.0 °F 71% 29.78 in 10.0 mi SSE 9.2 mph - N/A   Clear
5:52 AM 79.0 °F - 70.0 °F 74% 29.78 in 10.0 mi South 13.8 mph - N/A   Clear
6:52 AM 79.0 °F - 70.0 °F 74% 29.79 in 10.0 mi South 8.1 mph - N/A   Clear
7:52 AM 80.1 °F 83.2 °F 70.0 °F 71% 29.80 in 10.0 mi South 9.2 mph - N/A   Partly Cloudy
8:52 AM 81.0 °F 84.4 °F 70.0 °F 69% 29.81 in 10.0 mi SSE 12.7 mph - N/A   Clear
9:52 AM 84.0 °F 88.4 °F 70.0 °F 63% 29.81 in 10.0 mi South 11.5 mph - N/A   Clear
10:52 AM 84.9 °F 89.4 °F 70.0 °F 61% 29.82 in 10.0 mi SSE 12.7 mph - N/A   Clear
11:52 AM 84.0 °F 87.8 °F 69.1 °F 61% 29.79 in 10.0 mi SE 18.4 mph 21.9 mph N/A   Clear
12:52 PM 86.0 °F 90.7 °F 70.0 °F 59% 29.78 in 10.0 mi South 19.6 mph 27.6 mph N/A   Clear
1:52 PM 89.1 °F 94.1 °F 70.0 °F 53% 29.78 in 10.0 mi SSE 20.7 mph 26.5 mph N/A   Clear
2:52 PM 91.9 °F 97.4 °F 70.0 °F 48% 29.74 in 10.0 mi SSE 23.0 mph 29.9 mph N/A   Clear
3:52 PM 91.9 °F 97.4 °F 70.0 °F 48% 29.72 in 10.0 mi SSE 23.0 mph 28.8 mph N/A   Clear
4:52 PM 93.9 °F 98.6 °F 68.0 °F 43% 29.73 in 10.0 mi South 18.4 mph 27.6 mph N/A   Clear
5:52 PM 93.9 °F 98.6 °F 68.0 °F 43% 29.75 in 10.0 mi South 12.7 mph - N/A   Clear
6:52 PM 93.0 °F 99.0 °F 70.0 °F 47% 29.74 in 10.0 mi SSE 8.1 mph - N/A   Clear
7:52 PM 91.0 °F 97.6 °F 71.1 °F 52% 29.73 in 10.0 mi SSE 13.8 mph - N/A   Clear
8:52 PM 88.0 °F 95.6 °F 73.0 °F 61% 29.74 in 10.0 mi SSE 11.5 mph - N/A   Clear
9:52 PM 87.1 °F 92.8 °F 71.1 °F 59% 29.74 in 10.0 mi SSE 16.1 mph - N/A   Clear
10:52 PM 86.0 °F 90.7 °F 70.0 °F 59% 29.74 in 10.0 mi South 18.4 mph 24.2 mph N/A   Clear
11:52 PM 84.9 °F 88.8 °F 69.1 °F 59% 29.75 in 10.0 mi South 18.4 mph 27.6 mph N/A   Clear